Date String (YYYY-MM-DD hh:mm:ss) UTC,Instrument flags,Ambient pressure (hPa),Sample flow (lpm),Bypass flow (lpm),Sample temperature (°C),Ambient temperature (°C),ASC tube jacket temperature (°C),LED temperature (°C),Box temperature (°C),Sample RH (%),Span deviation,Mass concentration (μg/m³),Mass concentration (μg/m³),Mass concentration (μg/m³)
DateTimeUTC,F1_M11,P_M11,Q1_M11,Q2_M11,T1_M11,T2_M11,T3_M11,T4_M11,T5_M11,U1_M11,ZSPAN_M11,X0_M11,X2_M11,X1_M11
2021-12-14 20:00:00,,0817.5,4.98,0.00,26.8,26.1,00.0,35.6,28.7,07.6,0002.2,0018.76,0006.91,0004.94
2021-12-14 20:01:00,,0817.5,5.02,0.00,26.9,26.2,00.0,35.7,28.7,07.6,0002.9,0019.43,0006.98,0004.92
2021-12-14 20:02:00,,0817.6,4.99,0.00,26.9,26.2,00.0,35.7,28.7,07.6,0001.5,0020.08,0007.02,0004.90
2021-12-14 20:03:00,,0817.6,5.01,0.00,26.9,26.2,00.0,35.7,28.7,07.6,-001.4,0020.08,0007.04,0004.92
2021-12-14 20:04:00,,0817.6,4.98,0.00,26.9,26.2,00.0,35.7,28.8,07.6,-001.7,0020.51,0007.12,0004.94
2021-12-14 20:05:00,,0817.6,5.01,0.00,26.9,26.3,00.0,35.8,28.8,07.6,-001.7,0021.41,0007.17,0004.94
2021-12-14 20:06:00,,0817.6,4.99,0.00,27.0,26.3,00.0,35.8,28.8,07.6,-002.8,0022.79,0007.20,0004.92
2021-12-14 20:07:00,,0817.6,5.01,0.00,27.0,26.3,00.0,35.8,28.8,07.6,-002.8,0022.98,0007.34,0004.94
2021-12-14 20:08:00,,0817.5,4.99,0.00,27.0,26.3,00.0,35.8,28.9,07.6,-003.1,0022.36,0007.31,0004.94
2021-12-14 20:09:00,,0817.5,5.01,0.00,27.0,26.4,00.0,35.8,28.9,07.6,-002.2,0022.99,0007.31,0004.95
2021-12-14 20:10:00,,0817.6,4.98,0.00,27.0,26.4,00.0,35.9,28.9,07.5,-000.8,0023.27,0007.28,0004.95
2021-12-14 20:11:00,,0817.5,5.01,0.00,27.0,26.4,00.0,35.9,28.9,07.5,-002.1,0023.99,0007.26,0004.95
2021-12-14 20:12:00,,0817.5,4.98,0.00,27.1,26.4,00.0,35.9,28.9,07.6,-001.5,0022.92,0007.16,0004.95
2021-12-14 20:13:00,,0817.4,4.99,0.00,27.1,26.4,00.0,35.9,28.9,07.6,-001.1,0023.06,0007.13,0004.97
2021-12-14 20:14:00,,0817.3,5.02,0.00,27.1,26.4,00.0,35.9,29.0,07.7,-000.4,0024.13,0007.08,0004.97
2021-12-14 20:15:00,,0817.2,5.00,0.00,27.1,26.4,00.0,35.9,29.0,07.6,0000.4,0024.46,0007.04,0004.97
2021-12-14 20:16:00,,0817.2,4.99,0.00,27.1,26.5,00.0,36.0,29.0,07.6,0000.3,0023.96,0007.00,0004.98
2021-12-14 20:17:00,,0817.2,5.01,0.00,27.2,26.5,00.0,36.0,29.0,07.5,0000.8,0023.38,0006.92,0004.99
2021-12-14 20:18:00,,0817.3,5.00,0.00,27.2,26.5,00.0,36.0,29.0,07.6,0000.8,0024.29,0006.87,0004.99
2021-12-14 20:19:00,,0817.2,4.99,0.00,27.2,26.5,00.0,36.0,29.0,07.5,0000.9,0025.03,0006.91,0004.99
2021-12-14 20:20:00,,0817.2,5.01,0.00,27.2,26.5,00.0,36.0,29.0,07.5,0001.6,0024.71,0006.92,0004.99
2021-12-14 20:21:00,,0817.1,5.01,0.00,27.2,26.6,00.0,36.1,29.1,07.4,0001.5,0024.92,0006.85,0004.98
2021-12-14 20:22:00,,0817.1,5.00,0.00,27.2,26.6,00.0,36.1,29.1,07.4,0001.6,0025.32,0006.86,0004.98
2021-12-14 20:23:00,,0817.1,4.99,0.00,27.3,26.6,00.0,36.1,29.1,07.4,0001.9,0025.25,0006.85,0004.96
2021-12-14 20:24:00,,0817.1,5.01,0.00,27.3,26.6,00.0,36.1,29.1,07.4,0002.3,0024.81,0006.79,0004.92
2021-12-14 20:25:00,,0817.1,4.99,0.00,27.3,26.6,00.0,36.1,29.1,07.4,0002.2,0024.27,0006.76,0004.88
2021-12-14 20:26:00,,0817.2,5.02,0.00,27.3,26.6,00.0,36.1,29.2,07.4,0000.3,0024.89,0006.71,0004.86
2021-12-14 20:27:00,,0817.2,4.99,0.00,27.3,26.6,00.0,36.2,29.2,07.4,0000.3,0024.61,0006.66,0004.83
2021-12-14 20:28:00,,0817.1,5.00,0.00,27.3,26.6,00.0,36.2,29.2,07.3,0001.9,0024.36,0006.62,0004.82
2021-12-14 20:29:00,,0817.2,5.00,0.00,27.3,26.7,00.0,36.2,29.2,07.3,0001.8,0023.64,0006.57,0004.80
2021-12-14 20:30:00,,0817.2,5.00,0.00,27.4,26.7,00.0,36.2,29.2,07.3,0002.5,0023.27,0006.52,0004.78
2021-12-14 20:31:00,,0817.2,5.01,0.00,27.4,26.7,00.0,36.2,29.2,07.3,0002.8,0024.57,0006.50,0004.76
2021-12-14 20:32:00,,0817.2,4.98,0.00,27.4,26.7,00.0,36.2,29.3,07.3,0000.1,0024.06,0006.53,0004.74
2021-12-14 20:33:00,,0817.2,5.00,0.00,27.4,26.8,00.0,36.3,29.3,07.3,0000.0,0023.32,0006.51,0004.74
2021-12-14 20:34:00,,0817.2,5.00,0.00,27.5,26.8,00.0,36.3,29.3,07.3,0000.0,0024.44,0006.53,0004.73
2021-12-14 20:35:00,,0817.1,5.00,0.00,27.5,26.8,00.0,36.3,29.3,07.2,0000.0,0024.25,0006.50,0004.73
2021-12-14 20:36:00,,0817.1,4.99,0.00,27.5,26.8,00.0,36.3,29.3,07.2,0000.0,0024.13,0006.47,0004.74
2021-12-14 20:37:00,,0817.0,5.00,0.00,27.5,26.8,00.0,36.3,29.4,07.2,0000.0,0023.74,0006.51,0004.74
2021-12-14 20:38:00,,0817.0,4.99,0.00,27.5,26.9,00.0,36.3,29.4,07.2,0000.0,0023.83,0006.48,0004.74
2021-12-14 20:39:00,,0817.0,5.00,0.00,27.6,26.9,00.0,36.4,29.4,07.2,0000.0,0023.32,0006.51,0004.74
2021-12-14 20:40:00,,0817.0,5.00,0.00,27.6,26.9,00.0,36.4,29.4,07.2,0000.0,0023.37,0006.52,0004.74
2021-12-14 20:41:00,,0817.1,4.99,0.00,27.6,26.9,00.0,36.4,29.4,07.2,0000.0,0023.76,0006.48,0004.74
2021-12-14 20:42:00,,0817.0,5.00,0.00,27.6,26.9,00.0,36.4,29.4,07.2,0000.0,0022.15,0006.38,0004.75
2021-12-14 20:43:00,,0817.0,5.00,0.00,27.6,26.9,00.0,36.4,29.5,07.2,0000.0,0022.01,0006.34,0004.76
2021-12-14 20:44:00,,0817.1,5.01,0.00,27.6,26.9,00.0,36.5,29.5,07.2,0000.0,0021.35,0006.34,0004.76
2021-12-14 20:45:00,,0817.0,4.99,0.00,27.6,27.0,00.0,36.5,29.5,07.1,0000.0,0020.00,0006.36,0004.78
2021-12-14 20:46:00,,0817.0,5.01,0.00,27.7,27.0,00.0,36.5,29.5,07.1,0000.0,0019.55,0006.39,0004.80
2021-12-14 20:47:00,,0817.0,5.00,0.00,27.7,27.0,00.0,36.5,29.5,07.1,0000.0,0020.13,0006.45,0004.81
2021-12-14 20:48:00,,0817.0,5.01,0.00,27.7,27.0,00.0,36.5,29.6,07.1,0011.8,0019.53,0006.43,0004.81
2021-12-14 20:49:00,,0817.1,5.00,0.00,27.7,27.0,00.0,36.6,29.6,07.0,0003.8,0019.03,0006.42,0004.80
2021-12-14 20:50:00,,0817.1,5.00,0.00,27.7,27.0,00.0,36.6,29.6,07.0,0001.4,0018.99,0006.36,0004.78
2021-12-14 20:51:00,,0817.0,4.99,0.00,27.7,27.0,00.0,36.6,29.6,07.1,0005.1,0019.22,0006.42,0004.78
2021-12-14 20:52:00,,0817.0,5.01,0.00,27.7,27.0,00.0,36.6,29.6,07.1,0006.4,0018.84,0006.45,0004.79
2021-12-14 20:53:00,,0817.0,4.98,0.00,27.8,27.0,00.0,36.6,29.5,07.1,0002.0,0018.51,0006.47,0004.79
2021-12-14 20:54:00,,0816.9,5.02,0.00,27.8,27.0,00.0,36.6,29.6,07.1,0007.2,0018.28,0006.47,0004.78
2021-12-14 20:55:00,,0817.1,4.99,0.00,27.8,27.0,00.0,36.6,29.6,07.1,0006.9,0018.85,0006.44,0004.76
2021-12-14 20:56:00,,0817.3,5.02,0.00,27.8,27.0,00.0,36.6,29.6,07.1,0007.2,0020.00,0006.40,0004.74
2021-12-14 20:57:00,,0817.2,5.00,0.00,27.8,27.0,00.0,36.6,29.6,07.1,0007.4,0021.56,0006.36,0004.73
2021-12-14 20:58:00,,0817.0,4.99,0.00,27.8,27.0,00.0,36.6,29.6,07.1,0006.2,0021.77,0006.27,0004.71
2021-12-14 20:59:00,,0816.9,5.00,0.00,27.8,27.0,00.0,36.7,29.6,07.2,0002.3,0023.34,0006.24,0004.72
